LRFT Weather Reports


Display with metric or nautical units.
time (UTC)temp
F
wind
direction
speed
MPH
gust
MPH
rain 1hr
in
rain 24hr
in
rain mn
in
humidity
%
barometer
mb
20260508024900 0 0.0 0.0 0.00 0.00 0.00
20260508023401 0 0.0 0.0 0.00 0.00 0.00
20260508021901 0 0.0 0.0 0.00 0.00 0.00
20260508020400 0 0.0 0.0 0.00 0.00 0.00
20260508014857 0 0.0 0.0 0.00 0.00 0.00
20260508013400 0 0.0 0.0 0.00 0.00 0.00
20260508011900 0 0.0 0.0 0.00 0.00 0.00
20260508010359 0 0.0 0.0 0.00 0.00 0.00
20260508004900 0 0.0 0.0 0.00 0.00 0.00
20260508003400 0 0.0 0.0 0.00 0.00 0.00
20260508001856 0 0.0 0.0 0.00 0.00 0.00
20260508000400 0 0.0 0.0 0.00 0.00 0.00
20260507234857 0 0.0 0.0 0.00 0.00 0.00
20260507233359 0 0.0 0.0 0.00 0.00 0.00
20260507231856 0 0.0 0.0 0.00 0.00 0.00
20260507230359 0 0.0 0.0 0.00 0.00 0.00
20260507224900 0 0.0 0.0 0.00 0.00 0.00
20260507223523 0 0.0 0.0 0.00 0.00 0.00
20260507221857 0 0.0 0.0 0.00 0.00 0.00
20260507220359 0 0.0 0.0 0.00 0.00 0.00
20260507214859 50 130 14.0 0.0 0.00 0.00 0.00 94 1017.0
20260507213401 50 130 14.0 0.0 0.00 0.00 0.00 94 1017.0
20260507211900 50 130 14.0 0.0 0.00 0.00 0.00 94 1017.0
20260507210400 50 130 14.0 0.0 0.00 0.00 0.00 94 1017.0
20260507204900 50 130 14.0 0.0 0.00 0.00 0.00 94 1017.0
20260507203400 52 130 14.0 0.0 0.00 0.00 0.00 94 1017.0
20260507201857 52 130 14.0 0.0 0.00 0.00 0.00 94 1017.0
20260507200400 52 130 14.0 0.0 0.00 0.00 0.00 94 1017.0
20260507194905 52 120 11.0 0.0 0.00 0.00 0.00 94 1017.0
20260507193359 52 120 11.0 0.0 0.00 0.00 0.00 94 1017.0
20260507191856 52 120 11.0 0.0 0.00 0.00 0.00 94 1017.0
20260507190401 52 120 11.0 0.0 0.00 0.00 0.00 94 1017.0
20260507184902 55 130 16.0 0.0 0.00 0.00 0.00 88 1016.0
20260507183359 55 130 16.0 0.0 0.00 0.00 0.00 88 1016.0
20260507181900 55 130 16.0 0.0 0.00 0.00 0.00 88 1016.0
20260507180359 55 130 16.0 0.0 0.00 0.00 0.00 88 1016.0
20260507174859 59 140 16.0 0.0 0.00 0.00 0.00 77 1015.0
20260507173400 59 140 16.0 0.0 0.00 0.00 0.00 77 1015.0
20260507171900 59 140 16.0 0.0 0.00 0.00 0.00 77 1015.0
20260507170359 59 140 16.0 0.0 0.00 0.00 0.00 77 1015.0
20260507164900 66 140 18.0 0.0 0.00 0.00 0.00 56 1015.0
20260507163400 66 140 18.0 0.0 0.00 0.00 0.00 56 1015.0
20260507161859 66 140 18.0 0.0 0.00 0.00 0.00 56 1015.0
20260507160359 0 0.0 0.0 0.00 0.00 0.00
20260507154900 70 140 18.0 0.0 0.00 0.00 0.00 50 1016.0
20260507153400 70 140 18.0 0.0 0.00 0.00 0.00 50 1016.0
20260507151900 70 140 18.0 0.0 0.00 0.00 0.00 50 1016.0
20260507150359 70 140 18.0 0.0 0.00 0.00 0.00 50 1016.0
20260507144859 70 140 18.0 0.0 0.00 0.00 0.00 50 1016.0
20260507143401 70 140 18.0 0.0 0.00 0.00 0.00 50 1016.0
20260507141900 70 140 18.0 0.0 0.00 0.00 0.00 50 1016.0
20260507140359 70 140 18.0 0.0 0.00 0.00 0.00 50 1016.0
20260507134900 72 150 16.0 0.0 0.00 0.00 0.00 50 1016.0
20260507133359 72 150 16.0 0.0 0.00 0.00 0.00 50 1016.0
20260507131856 72 150 16.0 0.0 0.00 0.00 0.00 50 1016.0
20260507130359 72 150 16.0 0.0 0.00 0.00 0.00 50 1016.0
20260507124856 72 140 16.0 0.0 0.00 0.00 0.00 50 1017.0
20260507123438 72 140 16.0 0.0 0.00 0.00 0.00 50 1017.0
20260507121859 72 140 16.0 0.0 0.00 0.00 0.00 50 1017.0
20260507120400 72 140 16.0 0.0 0.00 0.00 0.00 50 1017.0
20260507114900 72 140 16.0 0.0 0.00 0.00 0.00 50 1017.0
20260507113427 0 0.0 0.0 0.00 0.00 0.00
20260507111900 72 140 16.0 0.0 0.00 0.00 0.00 50 1017.0
20260507110359 0 0.0 0.0 0.00 0.00 0.00
20260507104859 70 140 16.0 0.0 0.00 0.00 0.00 50 1017.0
20260507103359 70 140 16.0 0.0 0.00 0.00 0.00 50 1017.0
20260507101859 70 140 16.0 0.0 0.00 0.00 0.00 50 1017.0
20260507100400 70 140 16.0 0.0 0.00 0.00 0.00 50 1017.0
20260507094900 0 0.0 0.0 0.00 0.00 0.00
20260507093400 0 0.0 0.0 0.00 0.00 0.00
20260507091901 0 0.0 0.0 0.00 0.00 0.00
20260507090400 0 0.0 0.0 0.00 0.00 0.00
20260507084900 63 140 14.0 0.0 0.00 0.00 0.00 68 1017.0
20260507083400 63 140 14.0 0.0 0.00 0.00 0.00 68 1017.0
20260507081900 63 140 14.0 0.0 0.00 0.00 0.00 68 1017.0
20260507080400 63 140 14.0 0.0 0.00 0.00 0.00 68 1017.0
20260507074900 57 140 11.0 0.0 0.00 0.00 0.00 77 1018.0
20260507073359 57 140 11.0 0.0 0.00 0.00 0.00 77 1018.0
20260507071900 57 140 11.0 0.0 0.00 0.00 0.00 77 1018.0
20260507070359 57 140 11.0 0.0 0.00 0.00 0.00 77 1018.0
20260507064900 52 140 9.0 0.0 0.00 0.00 0.00 88 1018.0
20260507063400 52 140 9.0 0.0 0.00 0.00 0.00 88 1018.0
20260507061909 52 140 9.0 0.0 0.00 0.00 0.00 88 1018.0
20260507060400 52 140 9.0 0.0 0.00 0.00 0.00 88 1018.0
20260507054900 41 110 6.0 0.0 0.00 0.00 0.00 100 1017.0
20260507053407 41 110 6.0 0.0 0.00 0.00 0.00 100 1017.0
20260507051900 41 110 6.0 0.0 0.00 0.00 0.00 100 1017.0
20260507050359 0 0.0 0.0 0.00 0.00 0.00
20260507044853 41 110 9.0 0.0 0.00 0.00 0.00 100 1017.0
20260507043359 41 110 9.0 0.0 0.00 0.00 0.00 100 1017.0
20260507041900 41 110 9.0 0.0 0.00 0.00 0.00 100 1017.0
20260507040359 41 110 9.0 0.0 0.00 0.00 0.00 100 1017.0
20260507034856 41 110 9.0 0.0 0.00 0.00 0.00 100 1017.0
20260507033359 0 0.0 0.0 0.00 0.00 0.00
20260507031856 0 0.0 0.0 0.00 0.00 0.00
20260507030359 0 0.0 0.0 0.00 0.00 0.00